Regional Weather Roundup
Issued by NWS

Home | Current Version | Previous Version | Text Only | Print | Product List | Glossary Off
Versions: 1 2 3 4 5 6 7 8 9 10 11 12 13 14 15 16 17 18 19 20 21 22 23 24 25 26 27 28 29 30 31 32 33 34 35 36 37 38 39 40 41 42 43 44 45 46 47 48 49 50

702
ASUS43 KIND 291400
RWRIN

WEATHER ROUNDUP FOR INDIANA
NATIONAL WEATHER SERVICE INDIANAPOLIS IN
1000 AM EDT MON MAY 29 2017

NOTE: "FAIR" INDICATES FEW OR NO CLOUDS BELOW 12,000 FEET WITH NO
SIGNIFICANT WEATHER AND/OR OBSTRUCTIONS TO VISIBILITY.

* - STATION DOES NOT REPORT WEATHER SUCH AS PRECIPITATION OR FOG.

+ - STATION NOT QUALITY CONTROLLED BY THE NATIONAL WEATHER SERVICE.
    USE DATA WITH CAUTION...ESPECIALLY DEWPOINT AND RELATIVE
    HUMIDITY OBSERVATIONS.

INZ001>003-010>013-019-020-291500-
NORTHWEST INDIANA

CITY           SKY/WX    TMP DP  RH WIND       PRES   REMARKS
GARY /AIRPORT/ SUNNY     72  45  37 W14       29.82S
MICHIGAN CITY+ SUNNY     70  52  52 W8        29.82S
MONTICELLO +   SUNNY     69  55  62 W7        29.85F
RENSSELAER +   SUNNY     70  50  49 SW9       29.86R

$$

LMZ046-743>745-291500-
SOUTHERN LAKE MICHIGAN

STATION/POSITION TIME  TEMP    WIND        PRES    WAVE
                       AIR SEA DIR/SP/G            HT
                 (UTC) (F)     (DEG/KT/KT) (MB)    (FT)
BURNS HARBOR     1340   66     240/ 10/ 12 1010.2S
MICHIGAN CITY    1330   63     220/ 16/ 17   N/A
5NW MICH CITY    1350   60 56  230/ 10/ 12   N/A     1

$$

INZ004-005-014>016-021>024-291500-
NORTH CENTRAL INDIANA

CITY           SKY/WX    TMP DP  RH WIND       PRES   REMARKS
ELKHART        SUNNY     68  55  64 SW8       29.82R
GOSHEN         SUNNY     68  54  60 SW12      29.82S
SOUTH BEND     SUNNY     67  55  65 W12       29.82R

$$

INZ006>009-017-018-025>027-291500-
NORTHEAST INDIANA

CITY           SKY/WX    TMP DP  RH WIND       PRES   REMARKS
ANGOLA *+      SUNNY     70  55  60 SW10      29.81F
FORT WAYNE     MOSUNNY   68  57  68 SW15      29.85S
KENDALLVILLE + SUNNY     69  55  60 SW10      29.84R

$$

INZ028-029-035-036-043>045-051>053-291500-
WEST CENTRAL INDIANA

CITY           SKY/WX    TMP DP  RH WIND       PRES   REMARKS
CRAWFORDSVL +  SUNNY    -18 -24  75 SW8       29.90R WCI -37
GREENCASTLE +  SUNNY     68  55  64 W3        29.92R
LAFAYETTE      SUNNY     67  58  72 W6        29.87R
TERRE HAUTE    SUNNY     70  56  61 W6        29.91R

$$

INZ030>032-037>040-046>048-054>057-064-065-291500-
CENTRAL INDIANA

CITY           SKY/WX    TMP DP  RH WIND       PRES   REMARKS
COLUMBUS       SUNNY     68  61  77 SW7       29.93R
INDIANAPOLIS   MOSUNNY   69  59  70 SW10      29.90R
-EAGLE CREEK   SUNNY     69  57  65 SW8       29.89S
KOKOMO +       SUNNY     70  57  63 SW12      29.88R
SHELBYVILLE    SUNNY     71  60  68 SW9       29.91R

$$

INZ033-034-041-042-049-050-058-059-291500-
EAST CENTRAL INDIANA

CITY           SKY/WX    TMP DP  RH WIND       PRES   REMARKS
MUNCIE         SUNNY     71  55  56 SW10      29.88S
RICHMOND +     SUNNY     64  59  82 SW12      29.93R

$$

INZ060-061-067>069-081>083-085>088-291500-
SOUTHWEST INDIANA

CITY           SKY/WX    TMP DP  RH WIND       PRES   REMARKS
EVANSVILLE     SUNNY     75  60  59 SW6       29.95S
HUNTINGBURG *+ MOSUNNY   71  64  78 S7        29.95S

$$

INZ062-063-066-070>080-084-089>092-291500-
SOUTH CENTRAL AND SOUTHEAST INDIANA

CITY           SKY/WX    TMP DP  RH WIND       PRES   REMARKS
BLOOMINGTON    SUNNY     71  58  63 SW10      29.92S
MADISON *+     SUNNY     72  59  64 SW8       29.97R
SEYMOUR +      SUNNY     73  59  60 SW6       29.93S

$$





USA.gov is the U.S. government's official web portal to all federal, state and local government web resources and services.